SCP
0 -0 0 0 0 -0 -0 -0 -0 -0 -0 0 0 -0 -0 -0 -0 -0 -0 -0 -0 -0 -0 -0 0 -0 -0 0 0 0 0 0 -0 -0 -0 -0 -0 -0 -0 -0 -0 0 0
-0 -0 0 0 -0 -0 0 0 -0 0 0 0 -0 -0 -0 -0 -0 -0 -0 -0 -0 -0 -0 -0 -0 -0 -0 -0 -0 0 0 -0 -0 -0 -0 -0 -0 -0 -0 -0 0 0 0
-0 -0 -0 0 0 0 0 0 0 0 0 -0 -0 -0 -0 -0 -0 -0 -0 -0 -0 -0 -0 -0 -0 -0 -0 -0 -0 -0 -0 -0 -0 -0 -0 -0 -0 -0 -0 -0 0 0 0
0 -0 -0 0 0 0 0 0 0 0 0 0 0 -0 -0 -0 -0 -0 -0 -0 -0 -0 -0 -0 -0 -0 -0 -0 -0 -0 -0 -0 -0 -0 -0 -0 -0 -0 -0 -0 -0 0 -0
0 0 -0 0 -0 0 0 0 0 0 0 0 0 0 0 -0 -0 0 0 -0 -0 -0 -0 -0 -0 -0 -0 -0 0 0 -0 -0 -0 -0 -0 -0 -0 0 0 -0 0 0 -0
0 0 -0 0 -0 -0 0 0 0 0 0 0 0 0 -0 -0 0 -0 -0 -0 -0 -0 -0 -0 -0 -0 0 0 0 -0 -0 -0 -0 -0 -0 0 -0 0 0 0 0 0 0
-0 0 0 0 0 0 -0 -0 0 0 0 0 0 0 0 0 0 0 -0 -0 0 0 0 0 0 0 0 0 0 -0 -0 -0 -0 -0 -0 -0 0 -0 0 0 0 0 0
-0 0 0 0 0 0 0 0 -0 -0 0 0 0 0 -0 0 0 0 0 0 0 0 0 0 0 0 0 0 -0 -0 -0 -0 -0 -0 -0 -0 0 -0 0 0 0 0 0
0 0 0 0 0 0 0 0 0 0 0 0 0 0 0 0 0 0 0 0 0 0 0 0 0 0 0 -0 -0 -0 -0 -0 -0 -0 0 0 0 0 0 0 0 0 0
0 -0 0 0 -0 -0 -0 0 0 0 0 0 0 0 0 0 0 0 0 0 0 0 0 0 0 0 -0 -0 -0 -0 -0 -0 -0 0 0 0 0 0 0 0 0 0 0
-0 -0 -0 -0 -0 -0 -0 -0 0 0 0 0 0 0 0 0 0 0 0 0 0 0 0 -0 -0 -0 -0 -0 -0 -0 -0 0 0 0 0 0 0 -0 0 0 0 0 0
0 -0 -0 -0 -0 -0 -0 -0 -0 -0 -0 -0 -0 0 -0 0 0 0 0 0 0 -0 -0 -0 -0 -0 -0 -0 0 0 0 0 0 0 0 0 0 -0 -0 0 0 0 0
0 0 -0 -0 -0 -0 -0 -0 -0 -0 -0 -0 -0 -0 -0 0 0 -0 0 0 -0 0 -0 -0 -0 -0 0 0 0 0 0 0 0 0 0 0 0 0 0 0 0 0 0
0 -0 -0 -0 -0 -0 -0 -0 -0 -0 -0 -0 0 -0 0 0 0 0 0 0 0 0 -0 -0 0 0 0 0 0 0 0 0 0 0 0 0 0 0 0 0 0 0 0
0 -0 -0 -0 -0 0 -0 -0 -0 -0 -0 -0 0 0 0 0 0 0 0 0 0 0 0 0 0 0 0 0 0 0 0 0 0 0 0 0 0 0 0 0 0 0 0
0 0 -0 -0 -0 -0 0 0 0 0 0 0 0 0 0 0 0 0 0 0 0 0 0 0 0 0 0 0 0 0 0 0 0 0 0 0 0 0 0 0 0 0 0
0 0 0 0 0 0 -0 0 0 0 0 0 0 0 0 0 0 0 0 0 0 0 0 0 0 0 0 0 0 0 0 0 0 0 0 0 0 0 0 0 0 0 0
0 0 0 0 0 0 0 0 0 0 0 0 0 0 0 0 0 0 0 0 0 0 0 0 0 0 0 0 0 0 0 0 0 0 0 0 0 0 0 0 0 0 0
0 0 0 0 0 0 0 0 0 0 0 0 0 0 0 0 0 0 0 0 0 0 0 0 0 0 0 0 0 0 0 0 0 0 0 0 0 0 0 0 0 0 0
0 0 0 0 0 0 0 0 0 0 0 0 0 0 0 0 0 0 0 0 0 0 0 0 0 0 0 0 0 0 0 0 0 0 0 0 0 0 0 0 0 0 0
0 0 0 0 0 0 0 0 0 0 0 0 0 0 0 0 0 0 0 0 0 0 0 0 0 0 0 0 0 0 0 0 0 0 0 0 0 0 0 0 0 0 0
0 0 0 0 0 0 0 0 0 0 0 0 0 0 0 0 0 0 0 0 0 0 0 0 0 0 0 0 0 0 0 0 0 0 0 0 0 0 0 0 0 0 0
0 0 0 0 0 0 0 0 0 0 0 0 0 0 0 0 0 0 0 0 0 0 0 0 0 0 0 0 0 0 0 0 0 0 0 0 0 0 0 0 0 0 0
0 0 0 0 0 0 0 0 0 0 0 0 0 0 0 0 0 0 0 0 0 0 0 0 0 0 0 0 0 0 0 0 0 0 0 0 0 0 0 0 0 0 0
0 0 0 0 0 0 0 0 0 0 0 0 0 0 0 0 0 0 0 0 0 0 0 0 0 0 0 0 0 0 0 0 0 0 0 0 0 0 0 0 0 0 0
0 0 0 0 0 0 0 0 0 0 0 0 0 0 0 0 0 0 0 0 0 0 0 0 0 0 0 0 0 0 0 0 0 0 0 0 0 0 0 0 0 0 0
Wind_Speed_500mb
37 40 38 32 27 30 31 34 35 39 42 37 33 34 35 30 18 13 9 6 8 12 19 26 26 27 30 29 29 30 30 30 30 31 31 32 29 29 28 28 32 26 25
43 42 41 35 32 33 32 35 35 40 38 33 30 29 23 19 13 7 8 8 15 21 23 25 25 28 28 30 29 28 29 31 32 33 34 31 30 30 30 30 29 28 26
45 44 43 37 35 35 36 34 38 42 35 35 34 28 19 14 10 3 7 14 21 23 24 26 27 27 27 28 28 27 27 27 28 28 32 22 22 26 25 25 23 21 18
45 45 44 40 36 37 37 36 38 39 35 34 29 25 20 12 5 3 7 21 20 22 24 25 26 26 25 25 25 25 24 24 24 23 20 20 18 20 21 21 20 18 16
46 44 44 40 36 38 39 37 33 27 27 24 24 21 15 10 5 5 13 16 20 22 22 23 23 23 23 22 21 21 21 21 21 21 18 17 15 15 17 17 16 14 14
46 44 45 40 36 37 37 37 35 31 26 24 21 20 18 14 9 16 20 14 21 20 18 18 19 19 18 18 17 17 17 17 18 15 14 13 12 11 12 11 10 10 10
46 43 46 40 37 37 37 35 34 29 25 24 23 23 21 19 18 27 25 17 20 19 16 13 13 13 14 13 13 13 13 13 13 11 11 10 8 7 8 8 8 8 7
45 46 44 41 36 38 34 33 30 26 23 22 23 24 23 19 20 25 21 19 17 15 14 11 9 8 8 8 9 8 8 8 8 7 6 6 6 7 6 7 7 8 9
41 45 44 43 36 39 34 29 27 21 20 19 20 22 21 18 23 23 21 19 16 13 9 7 5 4 4 4 4 5 5 6 5 5 7 8 8 9 10 11 11 11 12
41 41 43 42 41 42 37 31 26 20 15 14 16 20 23 21 21 20 17 16 15 13 9 6 3 1 1 2 3 5 6 7 7 7 10 11 12 12 13 15 15 16 16
47 44 48 44 44 41 40 35 28 21 15 12 15 18 19 19 16 15 16 14 13 10 9 8 6 5 4 5 6 7 7 8 9 11 14 16 16 16 17 18 19 19 20
57 56 55 48 45 43 41 37 33 27 21 16 16 18 21 21 19 18 16 14 12 10 10 8 7 6 7 8 9 9 10 11 13 16 19 21 20 20 20 21 22 23 24
47 58 59 54 49 48 46 43 38 32 26 20 17 17 21 21 18 17 16 13 11 10 9 9 9 9 11 12 12 13 15 18 19 20 20 20 20 21 21 22 24 23 24
49 50 61 59 56 52 48 45 40 35 30 24 19 19 19 18 18 17 16 15 14 14 14 12 13 15 15 15 15 16 18 21 22 24 22 23 24 25 26 25 26 26 27
49 55 58 60 58 53 50 47 43 38 32 25 23 19 19 16 14 14 15 16 15 16 15 15 16 16 16 16 17 17 17 20 23 26 28 28 29 30 30 29 28 28 30
53 59 59 59 60 58 53 47 42 38 33 30 27 23 20 19 18 17 17 17 17 17 18 18 18 18 17 18 18 21 23 25 27 30 33 34 32 34 34 33 33 34 35
51 51 60 61 59 59 55 50 44 39 36 33 29 27 23 20 19 18 19 18 18 19 19 20 18 18 20 22 22 25 26 28 31 33 35 35 36 34 34 37 37 37 39
51 49 51 59 59 58 56 51 48 41 38 35 32 30 27 25 23 23 22 21 20 21 21 20 20 20 23 24 26 30 33 33 32 30 30 33 33 36 36 34 37 41 41
53 51 50 52 58 57 53 51 49 45 42 39 37 35 32 30 27 26 24 21 21 21 21 22 22 24 26 28 31 34 35 35 37 34 25 21 22 26 28 30 31 34 36
54 52 50 48 52 54 55 53 51 49 47 44 42 38 33 30 26 26 24 21 23 24 23 24 26 28 31 31 35 39 39 35 30 27 32 18 19 39 29 26 36 39 33
58 59 58 53 52 55 55 58 58 57 51 45 43 37 34 30 28 28 28 27 27 28 27 26 29 30 30 30 39 39 35 32 35 26 18 47 53 42 43 46 43 43 38
62 63 64 61 58 59 58 56 57 54 49 45 39 38 36 34 33 33 32 32 33 34 31 26 28 30 32 26 32 39 26 39 24 29 53 40 53 48 52 49 45 44 50
66 66 66 67 65 65 61 56 55 51 46 46 45 39 34 33 23 21 21 17 17 21 23 24 26 29 32 33 29 26 19 18 40 32 42 48 56 55 56 49 50 48 52
68 69 65 65 68 69 66 65 62 59 54 47 40 33 34 30 29 27 27 28 29 30 31 31 32 34 35 33 33 34 34 36 45 45 41 45 54 54 53 45 52 50 49
55 59 67 70 70 72 73 71 66 61 51 41 39 38 36 32 32 33 36 37 36 33 33 33 34 33 35 37 39 37 35 38 38 49 54 55 55 54 56 61 42 43 39
67 70 71 75 75 72 73 74 71 66 61 50 45 42 38 33 33 34 32 32 33 34 35 35 33 31 29 30 30 32 33 38 48 50 53 59 56 63 51 55 56 53 40
Wind_Direction_500mb
168 169 168 166 155 143 134 136 139 138 139 139 137 124 134 131 130 118 101 77 99 100 101 97 93 90 90 90 86 82 78 81 86 91 85 84 87 77 85 101 79 68 71
163 164 167 165 156 148 146 140 141 144 148 147 145 149 148 139 144 125 93 85 119 111 105 101 95 93 94 92 90 87 82 79 78 75 77 63 73 71 86 100 97 91 80
161 164 166 166 159 156 154 147 144 151 147 145 143 140 144 155 140 108 81 106 120 113 107 102 97 98 95 92 89 86 84 82 80 79 79 75 68 74 79 96 101 99 90
160 161 167 168 164 158 155 151 151 154 152 155 157 147 162 165 150 90 94 121 127 122 114 109 104 100 99 96 94 90 89 87 85 85 76 78 66 72 73 73 76 81 85
160 161 168 170 168 165 163 157 153 163 173 179 175 174 181 196 177 98 114 126 134 130 123 115 108 102 101 101 97 90 87 85 83 79 79 80 75 68 67 65 64 65 62
162 163 166 170 170 170 170 172 173 176 179 184 191 201 207 211 188 119 138 151 142 135 124 117 111 105 101 96 91 86 82 79 76 73 71 66 72 62 61 60 58 51 45
161 165 166 170 169 169 172 178 182 188 195 200 206 213 219 216 204 175 168 150 138 136 129 121 111 103 96 90 85 81 76 73 74 67 61 55 46 40 41 30 24 21 15
163 166 169 172 172 173 173 174 178 186 194 199 201 203 204 195 177 174 167 144 143 144 138 130 113 97 85 76 73 66 61 58 52 43 32 19 7 357 353 347 343 342 336
168 167 170 175 174 176 176 176 174 174 170 180 181 187 193 189 186 183 181 169 164 157 148 137 120 102 84 64 46 37 27 15 1 348 346 333 325 321 323 320 318 317 317
173 175 174 177 177 178 180 179 177 176 167 171 180 178 189 191 182 174 170 172 171 169 170 176 197 221 290 327 343 336 340 341 332 322 322 318 311 307 306 305 306 309 308
177 184 182 179 179 180 182 183 186 188 183 186 190 190 193 186 184 187 180 172 175 188 200 203 213 241 271 291 299 297 310 315 314 316 313 308 309 304 304 302 302 302 303
186 185 189 184 182 184 186 190 193 197 197 196 195 197 196 193 197 195 201 197 195 202 214 224 226 231 252 265 280 287 283 292 301 305 305 306 305 301 298 297 299 299 300
189 190 190 192 186 188 191 194 198 202 206 208 204 196 194 197 202 202 208 209 212 210 221 236 246 257 266 278 291 297 297 301 300 301 303 304 304 303 302 301 299 299 298
196 197 194 195 195 192 195 198 203 207 212 213 209 203 197 200 206 208 212 219 226 234 239 250 265 273 280 288 293 296 302 306 309 308 308 302 303 304 302 300 296 296 295
201 202 199 199 200 199 199 202 207 208 213 217 217 215 211 213 217 221 226 232 239 252 258 262 268 278 291 298 304 305 303 302 301 302 301 298 298 298 295 293 290 292 294
207 210 208 206 204 205 205 207 209 213 215 219 221 224 220 222 228 235 245 250 256 261 267 272 280 288 290 295 298 300 305 303 302 303 302 302 300 298 296 295 295 294 295
210 216 214 213 209 210 212 212 213 214 217 221 224 228 232 233 239 246 252 258 262 262 267 277 285 290 295 298 300 301 297 301 307 310 307 307 304 299 296 296 297 299 298
212 211 218 216 215 214 214 214 216 217 219 225 228 232 235 239 240 245 249 254 257 263 266 274 279 286 296 299 300 302 304 307 309 311 312 311 310 307 303 299 297 299 301
218 216 219 222 218 217 217 217 221 220 220 226 228 230 234 238 242 246 249 249 250 255 263 270 280 287 289 294 299 299 301 306 312 309 308 317 325 331 322 314 310 306 303
219 217 222 228 220 219 221 220 224 226 224 224 227 230 229 233 237 242 244 245 247 253 260 271 278 281 288 298 302 304 310 314 315 321 306 297 314 323 313 312 310 307 302
218 220 224 224 220 217 216 225 222 227 228 227 227 226 230 233 234 237 242 249 256 260 262 265 275 282 288 304 309 315 309 306 315 317 331 311 314 318 313 320 312 308 299
223 220 222 224 219 219 218 222 227 227 230 233 230 227 227 231 238 245 252 251 250 259 264 267 276 281 286 293 297 309 315 310 293 303 309 311 315 318 318 315 316 313 308
222 225 224 224 221 219 219 221 224 227 227 227 230 227 232 233 229 237 245 255 258 262 269 275 277 279 286 290 289 288 300 290 304 303 295 304 311 312 313 311 306 303 307
226 225 225 227 226 224 218 220 224 224 225 225 226 234 237 242 242 245 250 256 259 263 264 267 270 276 282 290 290 283 283 286 298 302 300 298 309 306 313 307 309 307 303
228 233 230 227 227 227 224 222 223 225 227 225 224 228 233 242 243 247 252 253 256 260 266 268 271 270 272 274 278 282 285 292 293 288 293 303 301 303 305 306 308 309 310
246 243 240 229 228 228 227 225 224 227 227 226 226 223 236 239 240 240 248 247 248 253 260 266 270 274 282 285 288 291 289 296 296 295 293 296 297 303 304 299 315 307 308
Wind_Speed_850mb
37 40 38 32 27 30 31 34 35 39 42 37 33 34 35 30 18 13 9 6 8 12 19 26 26 27 30 29 29 30 30 30 30 31 31 32 29 29 28 28 32 26 25
43 42 41 35 32 33 32 35 35 40 38 33 30 29 23 19 13 7 8 8 15 21 23 25 25 28 28 30 29 28 29 31 32 33 34 31 30 30 30 30 29 28 26
45 44 43 37 35 35 36 34 38 42 35 35 34 28 19 14 10 3 7 14 21 23 24 26 27 27 27 28 28 27 27 27 28 28 32 22 22 26 25 25 23 21 18
45 45 44 40 36 37 37 36 38 39 35 34 29 25 20 12 5 3 7 21 20 22 24 25 26 26 25 25 25 25 24 24 24 23 20 20 18 20 21 21 20 18 16
46 44 44 40 36 38 39 37 33 27 27 24 24 21 15 10 5 5 13 16 20 22 22 23 23 23 23 22 21 21 21 21 21 21 18 17 15 15 17 17 16 14 14
46 44 45 40 36 37 37 37 35 31 26 24 21 20 18 14 9 16 20 14 21 20 18 18 19 19 18 18 17 17 17 17 18 15 14 13 12 11 12 11 10 10 10
46 43 46 40 37 37 37 35 34 29 25 24 23 23 21 19 18 27 25 17 20 19 16 13 13 13 14 13 13 13 13 13 13 11 11 10 8 7 8 8 8 8 7
45 46 44 41 36 38 34 33 30 26 23 22 23 24 23 19 20 25 21 19 17 15 14 11 9 8 8 8 9 8 8 8 8 7 6 6 6 7 6 7 7 8 9
41 45 44 43 36 39 34 29 27 21 20 19 20 22 21 18 23 23 21 19 16 13 9 7 5 4 4 4 4 5 5 6 5 5 7 8 8 9 10 11 11 11 12
41 41 43 42 41 42 37 31 26 20 15 14 16 20 23 21 21 20 17 16 15 13 9 6 3 1 1 2 3 5 6 7 7 7 10 11 12 12 13 15 15 16 16
47 44 48 44 44 41 40 35 28 21 15 12 15 18 19 19 16 15 16 14 13 10 9 8 6 5 4 5 6 7 7 8 9 11 14 16 16 16 17 18 19 19 20
57 56 55 48 45 43 41 37 33 27 21 16 16 18 21 21 19 18 16 14 12 10 10 8 7 6 7 8 9 9 10 11 13 16 19 21 20 20 20 21 22 23 24
47 58 59 54 49 48 46 43 38 32 26 20 17 17 21 21 18 17 16 13 11 10 9 9 9 9 11 12 12 13 15 18 19 20 20 20 20 21 21 22 24 23 24
49 50 61 59 56 52 48 45 40 35 30 24 19 19 19 18 18 17 16 15 14 14 14 12 13 15 15 15 15 16 18 21 22 24 22 23 24 25 26 25 26 26 27
49 55 58 60 58 53 50 47 43 38 32 25 23 19 19 16 14 14 15 16 15 16 15 15 16 16 16 16 17 17 17 20 23 26 28 28 29 30 30 29 28 28 30
53 59 59 59 60 58 53 47 42 38 33 30 27 23 20 19 18 17 17 17 17 17 18 18 18 18 17 18 18 21 23 25 27 30 33 34 32 34 34 33 33 34 35
51 51 60 61 59 59 55 50 44 39 36 33 29 27 23 20 19 18 19 18 18 19 19 20 18 18 20 22 22 25 26 28 31 33 35 35 36 34 34 37 37 37 39
51 49 51 59 59 58 56 51 48 41 38 35 32 30 27 25 23 23 22 21 20 21 21 20 20 20 23 24 26 30 33 33 32 30 30 33 33 36 36 34 37 41 41
53 51 50 52 58 57 53 51 49 45 42 39 37 35 32 30 27 26 24 21 21 21 21 22 22 24 26 28 31 34 35 35 37 34 25 21 22 26 28 30 31 34 36
54 52 50 48 52 54 55 53 51 49 47 44 42 38 33 30 26 26 24 21 23 24 23 24 26 28 31 31 35 39 39 35 30 27 32 18 19 39 29 26 36 39 33
58 59 58 53 52 55 55 58 58 57 51 45 43 37 34 30 28 28 28 27 27 28 27 26 29 30 30 30 39 39 35 32 35 26 18 47 53 42 43 46 43 43 38
62 63 64 61 58 59 58 56 57 54 49 45 39 38 36 34 33 33 32 32 33 34 31 26 28 30 32 26 32 39 26 39 24 29 53 40 53 48 52 49 45 44 50
66 66 66 67 65 65 61 56 55 51 46 46 45 39 34 33 23 21 21 17 17 21 23 24 26 29 32 33 29 26 19 18 40 32 42 48 56 55 56 49 50 48 52
68 69 65 65 68 69 66 65 62 59 54 47 40 33 34 30 29 27 27 28 29 30 31 31 32 34 35 33 33 34 34 36 45 45 41 45 54 54 53 45 52 50 49
55 59 67 70 70 72 73 71 66 61 51 41 39 38 36 32 32 33 36 37 36 33 33 33 34 33 35 37 39 37 35 38 38 49 54 55 55 54 56 61 42 43 39
67 70 71 75 75 72 73 74 71 66 61 50 45 42 38 33 33 34 32 32 33 34 35 35 33 31 29 30 30 32 33 38 48 50 53 59 56 63 51 55 56 53 40
Wind_Direction_850mb
168 169 168 166 155 143 134 136 139 138 139 139 137 124 134 131 130 118 101 77 99 100 101 97 93 90 90 90 86 82 78 81 86 91 85 84 87 77 85 101 79 68 71
163 164 167 165 156 148 146 140 141 144 148 147 145 149 148 139 144 125 93 85 119 111 105 101 95 93 94 92 90 87 82 79 78 75 77 63 73 71 86 100 97 91 80
161 164 166 166 159 156 154 147 144 151 147 145 143 140 144 155 140 108 81 106 120 113 107 102 97 98 95 92 89 86 84 82 80 79 79 75 68 74 79 96 101 99 90
160 161 167 168 164 158 155 151 151 154 152 155 157 147 162 165 150 90 94 121 127 122 114 109 104 100 99 96 94 90 89 87 85 85 76 78 66 72 73 73 76 81 85
160 161 168 170 168 165 163 157 153 163 173 179 175 174 181 196 177 98 114 126 134 130 123 115 108 102 101 101 97 90 87 85 83 79 79 80 75 68 67 65 64 65 62
162 163 166 170 170 170 170 172 173 176 179 184 191 201 207 211 188 119 138 151 142 135 124 117 111 105 101 96 91 86 82 79 76 73 71 66 72 62 61 60 58 51 45
161 165 166 170 169 169 172 178 182 188 195 200 206 213 219 216 204 175 168 150 138 136 129 121 111 103 96 90 85 81 76 73 74 67 61 55 46 40 41 30 24 21 15
163 166 169 172 172 173 173 174 178 186 194 199 201 203 204 195 177 174 167 144 143 144 138 130 113 97 85 76 73 66 61 58 52 43 32 19 7 357 353 347 343 342 336
168 167 170 175 174 176 176 176 174 174 170 180 181 187 193 189 186 183 181 169 164 157 148 137 120 102 84 64 46 37 27 15 1 348 346 333 325 321 323 320 318 317 317
173 175 174 177 177 178 180 179 177 176 167 171 180 178 189 191 182 174 170 172 171 169 170 176 197 221 290 327 343 336 340 341 332 322 322 318 311 307 306 305 306 309 308
177 184 182 179 179 180 182 183 186 188 183 186 190 190 193 186 184 187 180 172 175 188 200 203 213 241 271 291 299 297 310 315 314 316 313 308 309 304 304 302 302 302 303
186 185 189 184 182 184 186 190 193 197 197 196 195 197 196 193 197 195 201 197 195 202 214 224 226 231 252 265 280 287 283 292 301 305 305 306 305 301 298 297 299 299 300
189 190 190 192 186 188 191 194 198 202 206 208 204 196 194 197 202 202 208 209 212 210 221 236 246 257 266 278 291 297 297 301 300 301 303 304 304 303 302 301 299 299 298
196 197 194 195 195 192 195 198 203 207 212 213 209 203 197 200 206 208 212 219 226 234 239 250 265 273 280 288 293 296 302 306 309 308 308 302 303 304 302 300 296 296 295
201 202 199 199 200 199 199 202 207 208 213 217 217 215 211 213 217 221 226 232 239 252 258 262 268 278 291 298 304 305 303 302 301 302 301 298 298 298 295 293 290 292 294
207 210 208 206 204 205 205 207 209 213 215 219 221 224 220 222 228 235 245 250 256 261 267 272 280 288 290 295 298 300 305 303 302 303 302 302 300 298 296 295 295 294 295
210 216 214 213 209 210 212 212 213 214 217 221 224 228 232 233 239 246 252 258 262 262 267 277 285 290 295 298 300 301 297 301 307 310 307 307 304 299 296 296 297 299 298
212 211 218 216 215 214 214 214 216 217 219 225 228 232 235 239 240 245 249 254 257 263 266 274 279 286 296 299 300 302 304 307 309 311 312 311 310 307 303 299 297 299 301
218 216 219 222 218 217 217 217 221 220 220 226 228 230 234 238 242 246 249 249 250 255 263 270 280 287 289 294 299 299 301 306 312 309 308 317 325 331 322 314 310 306 303
219 217 222 228 220 219 221 220 224 226 224 224 227 230 229 233 237 242 244 245 247 253 260 271 278 281 288 298 302 304 310 314 315 321 306 297 314 323 313 312 310 307 302
218 220 224 224 220 217 216 225 222 227 228 227 227 226 230 233 234 237 242 249 256 260 262 265 275 282 288 304 309 315 309 306 315 317 331 311 314 318 313 320 312 308 299
223 220 222 224 219 219 218 222 227 227 230 233 230 227 227 231 238 245 252 251 250 259 264 267 276 281 286 293 297 309 315 310 293 303 309 311 315 318 318 315 316 313 308
222 225 224 224 221 219 219 221 224 227 227 227 230 227 232 233 229 237 245 255 258 262 269 275 277 279 286 290 289 288 300 290 304 303 295 304 311 312 313 311 306 303 307
226 225 225 227 226 224 218 220 224 224 225 225 226 234 237 242 242 245 250 256 259 263 264 267 270 276 282 290 290 283 283 286 298 302 300 298 309 306 313 307 309 307 303
228 233 230 227 227 227 224 222 223 225 227 225 224 228 233 242 243 247 252 253 256 260 266 268 271 270 272 274 278 282 285 292 293 288 293 303 301 303 305 306 308 309 310
246 243 240 229 228 228 227 225 224 227 227 226 226 223 236 239 240 240 248 247 248 253 260 266 270 274 282 285 288 291 289 296 296 295 293 296 297 303 304 299 315 307 308